Starlink 11232

operational
NORAD ID: 60401 Int'l Des: 2024-141 Owner: SPXS Country: US Constellation: starlink
LEOCIRCULAR

关于 Starlink 11232

正在加载描述...

实时位置

正在加载3D地球...

即将过境

高度历史

Altitude vs Time

uPlot chart will show altitude changes over time

两行轨道根数

1 60401U 24141D 26035.30850873 -.00001665 00000-0 -88978-5 0 9998
2 60401 53.1585 250.5505 0000728 135.5931 224.5145 15.69693847 86506
Epoch: Feb 4, 2026 • Age: 7 hours

当前状态

高度 364.8 km
速度 7.70 km/s
星下点 48.51°N, 27.26°E
发射日期 Aug 10, 2024
运行时间 1.4 years
类型 internet

技术详情

分类 Payload
质量 960.00 kg
干质量 910.00 kg
总质量 960.00 kg
长度 0.30 m
直径 4.10 m
跨度 29.00 m
形状 Box + pan
制造商 SPXS
平台类型 Starlink V2MD
阶段状态 In Orbit
所有者/国家 SPXS/US

大型星座

Loading constellations...